www.pogodaiklimat.ru

Погода и климат >> Архив погоды >> Боливия >> Рурренабаке


ПОГОДА в Рурренабаке

  • Прогноз погоды в Рурренабаке
  • Монитор погоды в Рурренабаке

АРХИВ ПОГОДЫ в Рурренабаке

Время (UTC), дата Ветер
(напр.,м/с)
 
Видим.   Явления Облачность Т
(С)
Тd
(С)
f
(%)
Тe
(С)
Тes
(С)
Комфортность P
(гПа)
Po
(гПа)
Тmin
(С)
Tmax
(С)
R
(мм)
R24
(мм)
S
(см)
12 15.04 штиль 0 20 км 6/1 400 м
[Cu hum Ac trans Ci fib]
+25.0 +24.5 97 +35 +37 очень
душно
1011.2 988.2 +22.9
15 15.04 штиль 0 20 км 3/3 450 м
[Cu hum Ac trans Ci fib]
+31.0 +25.9 74 +46 +61 опасность
перегрева
1012.3 989.5
18 15.04 штиль 0 20 км 8/5 600 м
[Cu med, cong Ci fib]
+32.7 +26.2 69 +49 +58 опасность
перегрева
1009.4 986.6
21 15.04 штиль 0 20 км 9/1 700 м
[Cu hum Ci fib]
+31.8 +26.9 75 +49 +51 опасность
перегрева
1005.3 983.3 +34.4
12 16.04 штиль 0 20 км 6/0 2000 м
[Ac trans Ci fib]
+26.0 +24.9 94 +37 +39 очень
душно
1013.1 989.5 +23.6
15 16.04 штиль 0 20 км 9/3 900 м
[Sc As op Cs]
+28.8 +25.8 84 +43 +51 опасность
перегрева
1014.2 991.3
18 16.04 штиль 0 20 км 9/4 500 м
[Sc Ac trans Cs]
+31.0 +26.3 76 +47 +54 опасность
перегрева
1009.6 986.8 0.2
21 16.04 штиль 0 20 км 8/5 450 м
[Cu med, cong Ci fib]
+32.0 +26.0 71 +48 +49 опасность
перегрева
1006.9 984.2 +32.3
12 17.04 штиль 0 20 км {дождь} 10/3 600 м
[Sc Ac trans Cs]
+24.5 +24.0 97 +34 +35 очень
душно
1011.6 987.9 +22.1 16
15 17.04 ЮВ 4 20 км 9/5 500 м
[Sc Ac trans Ci]
+29.0 +25.0 79 +42 +45 опасность
перегрева
1012.7 989.5
18 17.04 В 3 20 км 8/6 450 м
[Cb calv Ac trans Ci]
+30.1 +25.9 78 +45 +49 опасность
перегрева
1009.8 986.9
21 17.04 В 2 20 км 9/5 450 м
[Cb calv Ci fib]
+28.3 +26.4 89 +43 +44 опасность
перегрева
1006.9 984.0 +30.2
12 18.04 штиль 0 20 км 5/3 600 м
[Sc Ac trans]
+20.6 +19.2 92 +24 +26 комфорт 1011.5 987.8 +17.9
15 18.04 штиль 0 7000 м осадки на расстоянии 6/6 500 м
[Cb calv Ci fib]
+32.0 +25.7 69 +47 +55 опасность
перегрева
1012.0 989.1
18 18.04 штиль 0 20 км 6/6 600 м
[Cu med, cong Ac trans Ci fib]
+32.2 +25.1 66 +46 +54 опасность
перегрева
1008.0 985.1
21 18.04 штиль 0 20 км 8/4 500 м
[Cu med, cong Ci]
+31.5 +25.6 71 +46 +48 опасность
перегрева
1005.2 982.5 +32.4
12 19.04 штиль 0 2000 м дымка {дождь} 8/8 240 м
[Sc Ci fib]
+25.2 +25.0 99 +36 +37 очень
душно
1010.5 987.7 +22.6 5
15 19.04 штиль 0 20 км 8/8 400 м
[Cu med, cong Ci fib]
+30.4 +26.5 80 +47 +51 опасность
перегрева
1011.2 988.2
18 19.04 штиль 0 6000 м осадки на расстоянии 8/8 500 м
[Cb calv Ci fib]
+33.0 +27.1 71 +51 +55 опасность
перегрева
1007.8 985.0
21 19.04 штиль 0 20 км 8/1 400 м
[Cu hum Ac trans Ci]
+27.3 +25.7 91 +40 +42 очень
душно
1005.3 982.6 +33.3
12 20.04 штиль 0 20 км 8/6 600 м
[Sc Ac trans Ci fib]
+24.4 +24.1 98 +34 +34 очень
душно
1010.6 987.7 +22.5 32
15 20.04 штиль 0 20 км 5/3 450 м
[Cu hum Ci fib]
+31.0 +27.0 79 +48 +62 опасность
перегрева
1011.2 988.4
18 20.04 С 4 20 км 8/6 600 м
[Cb cap Ci fib]
+33.0 +26.5 69 +50 +53 опасность
перегрева
1008.2 985.4
21 20.04 С 3 20 км 5/3 600 м
[Cb cap Ci fib]
+32.4 +26.0 69 +48 +49 опасность
перегрева
1005.0 982.5 +34.0
12 21.04 штиль 0 20 км 8/8 240 м
[Sc]
+25.0 +24.7 98 +35 +36 очень
душно
1008.4 985.6 +24.4
15 21.04 штиль 0 20 км 6/6 400 м
[Cu med, cong]
+29.5 +25.7 80 +44 +52 опасность
перегрева
1009.6 986.8
18 21.04 З 3 6000 м гроза, ливневой дождь 8/8 400 м
[Cb calv]
+26.9 +26.1 95 +40 +43 очень
душно
1007.2 984.4 3
21 21.04 С 3 20 км 6/4 500 м
[Cu med, cong Ac trans Ci]
+31.8 +26.4 73 +48 +49 опасность
перегрева
1004.4 981.9 +32.0

 

Местоположение метеостанции Рурренабаке (Боливия): широта -14.46 долгота -67.56 высота над уровнем моря 204 м.

В архиве по умолчанию представлена погода в Рурренабаке за последнюю неделю. Архивные данные за месяц целиком и за предыдущие месяцы, начиная с января 2011 года, Вы можете получить, выбрав интересующий диапазон дат из раскрывающегося списка и нажав кнопку "Ввод!".


*Определитесь, кто Вы:
робот инопланетянин человек

Внимание! Время в таблицах - всемирное. Для получения местного времени необходимо прибавить поправку, которая равна -4 ч.

Смотрите также архив погоды в соседних городах и на ближайших метеорологических станциях:

Погода в Рейесе (Боливия) (26 км)
Погода в Санта-Розе (Боливия) (78 км)
Погода в Сан-Борхе (Боливия) (87 км)
Погода в Сан Игнасио де Moксосе (Боливия) (217 км)
Погода в Овежуйо (Боливия) (235 км)
Погода в Ла-Пасе (Боливия) (238 км)
Погода в Санта-Ане (Боливия) (243 км)
Погода в Бауресе (Боливия) (243 км)
Погода в Пуэрто Мальдонадо (Перу) (273 км)
Погода в Тринидаде (Боливия) (288 км)

Пояснения к столбцам:

Ветер - указаны скорость ветра в м/с - средняя за 10 мин, порывы в срок и между сроками (в фигурных скобках) и направление, откуда дует ветер: С - северный, СВ - северо-восточный, В - восточный, ЮВ - юго-восточный, Ю - южный, ЮЗ - юго-западный, З - западный, СЗ - северо-западный.
Видимость - горизонтальная дальность видимости в метрах или километрах. При видимости от 1 до 10 км при отсутствии осадков обычно наблюдается дымка, при ухудшении видимости до 1 км и менее - туман. В сухую погоду видимость может ухудшаться дымом, пылью или мглою.
Явления - указаны атмосферные явления, наблюдавшиеся в срок или в последний час перед сроком; фигурными скобками обозначены явления, наблюдавшиеся между сроками (за 1-3 часа до срока); квадратными скобками обозначены град или гололедные отложения с указанием их диаметра в мм.
Облачность - указаны через наклонную черту общая и нижняя облачность в баллах и высота нижней границы облаков в метрах; квадратными скобками обозначены формы облаков: Ci - перистые, Cs - перисто-слоистые, Cc - перисто-кучевые, Ac - высококучевые, As - высокослоистые, Sc - слоисто-кучевые, Ns - слоисто-дождевые, Cu - кучевые, Cb - кучево-дождевые. Подробнее классификацию облаков см. в Атласе облаков (PDF).
T - Температура воздуха - температура, измеренная на высоте 2 м над землей.
Td - Температура точки росы - температура, при понижении до которой содержащийся в воздухе водяной пар достигнет насыщения.
f - Относительная влажность воздуха - влажноcть воздуха, измеренная на высоте 2 м над землей.
Te - Эффективная температура - температура, которую ощущает одетый по сезону человек в тени. Характеристика душности погоды. При расчете учитывается влияние влажности воздуха и скорости ветра на теплоощущения человека.
Tes - Эффективная температура на солнце - температура, которую ощущает человек, с поправкой на солнечный нагрев. Характеристика знойности погоды. Зависит от высоты солнца над горизонтом, облачности и скорости ветра. Ночью, в пасмурную погоду, а также при ветре 12 м/с и более поправка равна нулю.
P - Атмосферное давление - приведенное к уровню моря атмосферное давление.
Po - Атмосферное давление - измеренное на уровне метеостанции атмосферное давление.
Tmin - Минимальная температура - минимум температуры воздуха на высоте 2 м над землей.
Tmax - Максимальная температура - максимум температуры воздуха на высоте 2 м над землей.
R - Количество осадков - Количество выпавших осадков за период времени, мм. При наведении курсора мыши на число - период времени, за который выпало указанное количество осадков.
R24 - Количество осадков - Количество выпавших осадков за 24 часа, мм.
S - Снежный покров - Высота снежного покрова, см. При наведении курсора мыши на число - состояние снежного покрова и степень покрытия местности в баллах.